{"data":{"norad_id":68434,"intl_designator":"2026-067U","name":"VIREON-1","alt_names":[],"object_type":"PAYLOAD","status":"ACTIVE","operator":null,"country":"UK","launch_date":"2026-03-30","launch_site_code":"AFWTR","launch_vehicle":null,"mission":null,"orbit_class":"UNKNOWN","rcs_meters":null,"size_class":null,"mass_kg":null,"dimensions":null,"purposes":[],"wikipedia_slug":null,"has_3d_model":false,"image_url":null,"decayed_at":null,"tle_current":{"epoch":"2026-05-25T03:02:56.293152Z","epoch_age_seconds":60511,"freshness":"FRESH","line1":"1 68434U 26067U   26145.12704043  .00003494  00000+0  17298-3 0  9994","line2":"2 68434  97.4570 103.9802 0003410  73.0187 287.1421 15.18436933  8440","mean_motion":15.18436933,"eccentricity":0.000341,"inclination_deg":97.457,"raan_deg":103.9802,"arg_perigee_deg":73.0187,"mean_anomaly_deg":287.1421,"bstar":0.00017298,"rev_number":844,"period_min":94.834363463155,"perigee_km":508.21496472277,"apogee_km":512.91305881279,"semimajor_km":6888.7010117678,"source":"CELESTRAK","updated_at":"2026-05-25T13:38:07.815645Z"}}}